Location: Santa Cristina
(46.5667°N, 11.7167°E)
Time: 16:32:59
(UTC+00:00)

Cosmos 1300 Rocket - Pass Details

Date: 21 April 2021
Orbit: 603 x 625 km, 82.5° (Epoch: 11 May)

Event Time Altitude Azimuth Distance (km) Brightness Sun altitude
Rises 01:52:24 0° 354° (N) 2,922 7.6 -21.4°
Reaches altitude 10° 01:54:41 10° 360° (N) 2,011 6.8 -21.1°
Maximum altitude 01:59:04 53° 78° (ENE) 770 4.3 -20.6°
Enters shadow 02:02:59 12° 154° (SSE) 1,838 5.8 -20.1°
